DW8248 Weather Reports


Display with metric or nautical units.
time (UTC)temp
F
wind
direction
speed
MPH
gust
MPH
rain 1hr
in
rain 24hr
in
rain mn
in
humidity
%
barometer
mb
20180815182411 85 95 3.0 9.0 0.00 0.00 0.00 79 1018.2
20180815181415 85 84 5.0 9.0 0.00 0.00 0.00 79 1018.2
20180815180422 85 102 5.0 10.0 0.00 0.00 0.00 78 1018.3
20180815175436 85 80 6.0 10.0 0.00 0.00 0.00 78 1018.4
20180815174422 85 94 4.0 9.0 0.00 0.00 0.00 78 1018.5
20180815173351 85 74 3.0 10.0 0.00 0.00 0.00 77 1018.7
20180815172321 85 54 5.0 10.0 0.00 0.00 0.00 78 1018.6
20180815171323 85 92 5.0 9.0 0.00 0.00 0.00 76 1018.6
20180815170256 85 59 4.0 9.0 0.00 0.00 0.00 76 1018.7
20180815165308 84 51 4.0 9.0 0.00 0.00 0.00 76 1018.7
20180815164301 85 91 4.0 8.0 0.00 0.00 0.00 76 1018.8
20180815163258 84 78 4.0 8.0 0.00 0.00 0.00 76 1019.0
20180815162247 84 95 3.0 8.0 0.00 0.00 0.00 76 1018.9
20180815161242 84 63 3.0 8.0 0.00 0.00 0.00 74 1019.0
20180815160233 85 44 3.0 7.0 0.00 0.00 0.00 75 1019.0
20180815155211 85 59 3.0 7.0 0.00 0.00 0.00 75 1019.0
20180815154138 84 88 3.0 7.0 0.00 0.00 0.00 74 1019.0
20180815153157 84 96 3.0 6.0 0.00 0.00 0.00 74 1019.0
20180815152201 84 46 3.0 6.0 0.00 0.00 0.00 73 1018.9
20180815151125 84 80 2.0 6.0 0.00 0.00 0.00 73 1018.8
20180815150105 84 65 2.0 5.0 0.00 0.00 0.00 72 1018.8
20180815145053 85 65 2.0 5.0 0.00 0.00 0.00 73 1018.7
20180815144016 84 70 2.0 6.0 0.00 0.00 0.00 73 1018.6
20180815142959 84 82 2.0 6.0 0.00 0.00 0.00 74 1018.6
20180815141957 84 111 1.0 4.0 0.00 0.00 0.00 76 1018.5
20180815140941 83 46 2.0 4.0 0.00 0.00 0.00 76 1018.5
20180815135908 83 43 2.0 4.0 0.00 0.00 0.00 76 1018.4
20180815134837 83 35 2.0 4.0 0.00 0.00 0.00 79 1018.3
20180815133858 83 51 1.0 4.0 0.00 0.00 0.00 81 1018.3
20180815132910 82 49 1.0 3.0 0.00 0.00 0.00 81 1018.1
20180815131855 82 55 1.0 3.0 0.00 0.00 0.00 83 1018.1
20180815130851 81 49 1.0 4.0 0.00 0.00 0.00 85 1018.0
20180815125825 80 49 2.0 4.0 0.00 0.00 0.00 86 1017.9
20180815124847 80 49 1.0 3.0 0.00 0.00 0.00 88 1017.8
20180815123828 79 42 1.0 3.0 0.00 0.00 0.00 88 1017.9
20180815122831 79 28 0.0 2.0 0.00 0.00 0.00 88 1017.8
20180815121829 80 28 0.0 0.0 0.00 0.00 0.00 88 1017.8
20180815120818 79 28 0.0 0.0 0.00 0.00 0.00 90 1017.6
20180815115822 79 28 0.0 0.0 0.00 0.00 0.00 91 1017.5
20180815114827 78 28 0.0 0.0 0.00 0.00 0.00 93 1017.6
20180815113803 77 28 1.0 2.0 0.00 0.00 0.00 93 1017.6
20180815112759 76 28 1.0 3.0 0.00 0.00 0.00 93 1017.5
20180815111742 76 28 1.0 3.0 0.00 0.00 0.00 93 1017.4
20180815110804 76 16 0.0 2.0 0.00 0.00 0.00 92 1017.2
20180815105824 76 16 0.0 0.0 0.00 0.00 0.00 93 1017.0
20180815104808 76 16 0.0 0.0 0.00 0.00 0.00 93 1016.9
20180815103811 76 16 0.0 0.0 0.00 0.00 0.00 93 1016.8
20180815102754 76 16 0.0 0.0 0.00 0.00 0.00 93 1016.7
20180815101800 76 16 1.0 2.0 0.00 0.00 0.00 93 1016.7
20180815100749 76 16 2.0 3.0 0.00 0.00 0.00 92 1016.5
20180815095739 76 16 0.0 2.0 0.00 0.00 0.00 92 1016.4
20180815094706 76 16 0.0 0.0 0.00 0.00 0.00 92 1016.4
20180815093649 76 16 0.0 0.0 0.00 0.00 0.00 92 1016.4
20180815092612 76 16 0.0 0.0 0.00 0.00 0.00 91 1016.3
20180815091618 76 16 0.0 0.0 0.00 0.00 0.00 91 1016.2
20180815090640 76 16 0.0 0.0 0.00 0.00 0.00 91 1016.2
20180815085644 76 16 0.0 0.0 0.00 0.00 0.00 90 1016.2
20180815084706 76 16 0.0 0.0 0.00 0.00 0.00 90 1016.2
20180815083704 76 16 0.0 0.0 0.00 0.00 0.00 90 1016.1
20180815082647 76 16 0.0 0.0 0.00 0.00 0.00 90 1016.1
20180815081636 76 16 0.0 0.0 0.00 0.00 0.00 90 1016.0
20180815080627 76 16 0.0 0.0 0.00 0.00 0.00 90 1016.1
20180815075629 76 16 0.0 0.0 0.00 0.00 0.00 90 1016.0
20180815074640 76 16 0.0 0.0 0.00 0.00 0.00 90 1016.2
20180815073618 77 16 0.0 0.0 0.00 0.00 0.00 89 1016.3
20180815072622 77 16 0.0 0.0 0.00 0.00 0.00 89 1016.3
20180815071622 77 16 0.0 0.0 0.00 0.00 0.00 88 1016.4
20180815070554 77 16 0.0 0.0 0.00 0.00 0.00 88 1016.5
20180815065545 77 16 0.0 0.0 0.00 0.00 0.00 88 1016.7
20180815064508 77 16 0.0 0.0 0.00 0.00 0.00 88 1016.9
20180815063509 78 16 0.0 0.0 0.00 0.00 0.00 87 1017.0
20180815062500 78 16 0.0 0.0 0.00 0.00 0.00 87 1017.0
20180815061446 78 16 0.0 0.0 0.00 0.00 0.00 87 1017.2
20180815060435 78 16 0.0 0.0 0.00 0.00 0.00 87 1017.2
20180815055447 78 16 0.0 0.0 0.00 0.00 0.00 87 1017.4
20180815054447 78 16 0.0 0.0 0.00 0.00 0.00 87 1017.4
20180815053442 78 16 1.0 3.0 0.00 0.00 0.00 87 1017.5
20180815052409 78 16 2.0 3.0 0.00 0.00 0.00 87 1017.6
20180815051333 78 15 1.0 3.0 0.00 0.00 0.00 87 1017.7
20180815050349 78 15 0.0 0.0 0.00 0.00 0.00 87 1017.7
20180815045338 78 15 0.0 0.0 0.00 0.00 0.00 87 1017.8
20180815044317 78 15 0.0 0.0 0.00 0.00 0.00 87 1017.9
20180815043256 78 15 0.0 0.0 0.00 0.00 0.00 87 1017.8
20180815042308 78 15 0.0 0.0 0.00 0.00 0.00 87 1017.8
20180815041244 78 15 0.0 0.0 0.00 0.00 0.00 87 1017.8
20180815040239 79 15 0.0 0.0 0.00 0.00 0.00 87 1017.7
20180815035214 79 15 0.0 0.0 0.00 0.00 0.00 86 1017.8
20180815034205 79 15 0.0 0.0 0.00 0.00 0.00 86 1017.8
20180815033201 79 15 0.0 0.0 0.00 0.00 0.00 85 1017.8
20180815032133 80 13 0.0 3.0 0.00 0.00 0.00 84 1017.8
20180815031141 80 317 0.0 0.0 0.00 0.00 0.00 84 1017.7
20180815030157 81 317 1.0 0.0 0.00 0.00 0.00 84 1017.7
20180815025209 81 305 0.0 0.0 0.00 0.00 0.00 84 1017.5
20180815024150 81 305 3.0 5.0 0.00 0.00 0.00 84 1017.4
20180815023127 81 302 2.0 4.0 0.00 0.01 0.00 83 1017.1
20180815022121 81 236 1.0 0.0 0.00 0.01 0.00 83 1017.2
20180815021050 81 214 2.0 3.0 0.00 0.03 0.00 83 1017.0
20180815020040 82 223 3.0 5.0 0.00 0.04 0.00 83 1016.9
20180815015036 82 214 4.0 6.0 0.00 0.04 0.00 84 1016.9
20180815014020 82 213 5.0 8.0 0.00 0.04 0.00 84 1016.9
20180815013023 82 252 6.0 11.0 0.00 0.04 0.00 84 1016.9
20180815012020 81 183 5.0 12.0 0.00 0.04 0.00 85 1016.7
20180815010948 82 268 6.0 12.0 0.00 0.04 0.00 85 1016.7
20180815005936 81 143 4.0 9.0 0.00 0.04 0.00 85 1016.7
20180815004956 81 135 5.0 11.0 0.00 0.04 0.00 84 1016.6
20180815004019 82 158 7.0 11.0 0.00 0.04 0.00 85 1016.6
20180815003016 81 161 6.0 10.0 0.00 0.04 0.00 84 1016.7
20180815001945 81 147 6.0 10.0 0.00 0.04 0.00 84 1016.5
20180815000926 81 141 6.0 10.0 0.00 0.04 0.00 85 1016.3
20180814235948 81 154 5.0 12.0 0.00 0.04 0.00 86 1016.4
20180814234931 81 136 5.0 13.0 0.00 0.04 0.00 87 1016.4
20180814233924 81 138 5.0 13.0 0.00 0.04 0.00 87 1016.2
20180814232855 81 136 6.0 10.0 0.00 0.04 0.00 87 1015.9
20180814231914 81 153 5.0 11.0 0.00 0.04 0.00 87 1015.9
20180814230930 81 119 5.0 12.0 0.00 0.04 0.00 87 1015.9
20180814225928 81 127 6.0 12.0 0.00 0.04 0.00 86 1015.8
20180814224907 81 155 6.0 11.0 0.00 0.04 0.00 86 1015.6
20180814223840 81 148 5.0 12.0 0.00 0.04 0.00 85 1015.6
20180814222855 81 154 7.0 12.0 0.00 0.04 0.00 85 1015.6
20180814221849 81 126 7.0 11.0 0.00 0.04 0.00 86 1015.5
20180814220907 81 126 5.0 11.0 0.00 0.04 0.00 86 1015.7
20180814215900 81 142 6.0 11.0 0.00 0.04 0.00 87 1015.8
20180814214845 81 128 6.0 11.0 0.00 0.04 0.00 86 1015.6
20180814213854 81 123 6.0 11.0 0.00 0.04 0.00 86 1015.6
20180814212839 81 114 5.0 12.0 0.00 0.04 0.00 84 1015.6
20180814211811 81 145 7.0 12.0 0.00 0.04 0.00 83 1015.5
20180814210823 82 155 7.0 15.0 0.00 0.04 0.00 83 1015.7
20180814205809 83 139 9.0 15.0 0.00 0.04 0.00 82 1015.9
20180814204811 84 142 9.0 14.0 0.00 0.04 0.00 80 1015.8
20180814203818 84 122 9.0 18.0 0.00 0.04 0.00 78 1015.7
20180814202751 83 146 11.0 18.0 0.00 0.04 0.00 81 1015.6
20180814201751 83 161 8.0 15.0 0.00 0.04 0.00 75 1015.7
20180814200812 82 160 9.0 17.0 0.00 0.04 0.00 79 1015.9
20180814195753 82 164 11.0 17.0 0.00 0.04 0.00 82 1016.2
20180814194733 83 165 10.0 17.0 0.00 0.04 0.00 84 1016.3
20180814193720 83 142 10.0 18.0 0.00 0.04 0.00 85 1016.5
20180814192705 83 173 9.0 18.0 0.00 0.04 0.00 85 1016.8
20180814191709 84 151 9.0 16.0 0.00 0.04 0.00 80 1016.7
20180814190640 83 109 8.0 15.0 0.00 0.04 0.00 82 1016.8
20180814185639 84 121 7.0 15.0 0.00 0.04 0.00 81 1016.8
20180814184626 84 131 8.0 14.0 0.00 0.04 0.00 82 1016.9
20180814183621 84 124 8.0 14.0 0.00 0.04 0.00 80 1016.8